Time,TemperatureF,DewpointF,PressureIn,WindDirection,WindDirectionDegrees,WindSpeedMPH,WindSpeedGustMPH,Humidity,HourlyPrecipIn,Conditions,Clouds,dailyrainin,SoftwareType,DateUTC
2013-03-05 00:00:00,32.1,25.9,29.69,North,3,5.4,9.8,78,0.00,,OVC085,0.00,VWS V14.01,2013-03-05 05:00:00,
2013-03-05 00:04:00,31.9,25.8,29.69,North,353,7.1,8.5,78,0.00,,BKN049,0.00,VWS V14.01,2013-03-05 05:04:00,
2013-03-05 00:05:00,31.8,25.7,29.69,North,350,4.7,9.3,78,0.00,,BKN049,0.00,VWS V14.01,2013-03-05 05:05:00,
2013-03-05 00:07:00,31.8,25.7,29.69,NNW,347,7.8,11.2,78,0.00,,BKN049,0.00,VWS V14.01,2013-03-05 05:07:00,
2013-03-05 00:12:00,31.8,25.7,29.69,NNE,13,3.6,7.0,78,0.00,,BKN049,0.00,VWS V14.01,2013-03-05 05:12:00,
2013-03-05 00:17:00,31.8,25.8,29.69,NE,35,4.3,5.9,78,0.00,,BKN049,0.00,VWS V14.01,2013-03-05 05:17:00,
2013-03-05 00:22:00,31.8,25.9,29.69,NNE,17,5.8,7.1,78,0.00,,BKN049,0.00,VWS V14.01,2013-03-05 05:22:00,
2013-03-05 00:27:00,31.9,26.0,29.69,NE,52,4.2,8.3,78,0.00,,BKN049,0.00,VWS V14.01,2013-03-05 05:27:00,
2013-03-05 00:32:00,32.1,26.2,29.69,NNE,24,4.5,6.4,78,0.00,,BKN049,0.00,VWS V14.01,2013-03-05 05:32:00,
2013-03-05 00:37:00,32.0,26.0,29.70,North,8,5.4,8.9,78,0.00,,BKN049,0.00,VWS V14.01,2013-03-05 05:37:00,
2013-03-05 00:42:00,32.2,26.2,29.70,North,11,2.4,7.1,78,0.00,,BKN049,0.00,VWS V14.01,2013-03-05 05:42:00,
2013-03-05 00:47:00,32.2,26.1,29.70,NE,41,8.9,8.9,78,0.00,,BKN049,0.00,VWS V14.01,2013-03-05 05:47:00,
2013-03-05 00:52:00,32.3,26.1,29.70,NNW,330,6.3,11.9,78,0.00,,BKN049,0.00,VWS V14.01,2013-03-05 05:52:00,
2013-03-05 00:57:00,32.3,26.1,29.70,North,7,4.9,6.2,78,0.00,,BKN049,0.00,VWS V14.01,2013-03-05 05:57:00,
2013-03-05 01:02:00,32.5,26.3,29.70,NE,55,3.8,6.2,78,0.00,,OVC047,0.00,VWS V14.01,2013-03-05 06:02:00,
2013-03-05 01:07:00,32.5,26.2,29.70,NNE,17,7.3,9.8,77,0.00,,OVC047,0.00,VWS V14.01,2013-03-05 06:07:00,
2013-03-05 01:12:00,32.4,26.0,29.71,North,6,5.2,7.5,77,0.00,,OVC047,0.00,VWS V14.01,2013-03-05 06:12:00,
2013-03-05 01:17:00,32.4,26.1,29.71,North,7,6.8,8.3,77,0.00,,OVC047,0.00,VWS V14.01,2013-03-05 06:17:00,
2013-03-05 01:22:00,32.5,26.1,29.71,NNW,330,7.5,8.1,77,0.00,,OVC047,0.00,VWS V14.01,2013-03-05 06:22:00,
2013-03-05 01:27:00,32.7,26.1,29.71,NNE,22,2.6,6.8,76,0.00,,OVC047,0.00,VWS V14.01,2013-03-05 06:27:00,
2013-03-05 01:32:00,32.7,26.1,29.71,NNW,347,5.1,10.0,76,0.00,,OVC047,0.00,VWS V14.01,2013-03-05 06:32:00,
2013-03-05 01:37:00,32.7,26.2,29.71,North,6,6.0,6.7,77,0.00,,OVC047,0.00,VWS V14.01,2013-03-05 06:37:00,
2013-03-05 01:42:00,32.8,26.3,29.71,NNW,336,5.4,10.0,77,0.00,,OVC047,0.00,VWS V14.01,2013-03-05 06:42:00,
2013-03-05 01:47:00,32.8,26.1,29.71,NNW,346,6.2,11.3,76,0.00,,OVC047,0.00,VWS V14.01,2013-03-05 06:47:00,
2013-03-05 01:52:00,32.7,25.8,29.71,NE,49,3.4,7.0,76,0.00,,OVC047,0.00,VWS V14.01,2013-03-05 06:52:00,
2013-03-05 01:57:00,32.7,25.9,29.71,NW,305,3.4,5.1,76,0.00,,OVC047,0.00,VWS V14.01,2013-03-05 06:57:00,
2013-03-05 02:02:00,32.8,26.1,29.71,NW,321,5.8,7.2,76,0.00,,OVC047,0.00,VWS V14.01,2013-03-05 07:02:00,
2013-03-05 02:07:00,32.7,26.0,29.71,North,357,6.8,11.8,76,0.00,,OVC047,0.00,VWS V14.01,2013-03-05 07:07:00,
2013-03-05 02:12:00,32.7,25.9,29.72,NNE,32,7.7,11.3,76,0.00,,OVC047,0.00,VWS V14.01,2013-03-05 07:12:00,
2013-03-05 02:17:00,32.7,26.0,29.72,NNW,336,1.5,3.9,76,0.00,,OVC047,0.00,VWS V14.01,2013-03-05 07:17:00,
2013-03-05 02:22:00,32.6,25.8,29.72,NNE,13,5.3,8.6,76,0.00,,OVC047,0.00,VWS V14.01,2013-03-05 07:22:00,
2013-03-05 02:27:00,32.5,25.8,29.72,North,8,5.6,5.6,76,0.00,,OVC047,0.00,VWS V14.01,2013-03-05 07:27:00,
2013-03-05 02:32:00,32.6,26.0,29.72,North,7,5.8,8.3,76,0.00,,OVC047,0.00,VWS V14.01,2013-03-05 07:32:00,
2013-03-05 02:37:00,32.4,25.8,29.73,NNW,336,5.6,9.1,76,0.00,,OVC047,0.00,VWS V14.01,2013-03-05 07:37:00,
2013-03-05 02:42:00,32.4,25.7,29.73,NNW,339,5.2,9.1,76,0.00,,OVC047,0.00,VWS V14.01,2013-03-05 07:42:00,
2013-03-05 02:47:00,32.5,25.7,29.73,NNW,330,5.2,10.6,76,0.00,,OVC047,0.00,VWS V14.01,2013-03-05 07:47:00,
2013-03-05 02:52:00,32.3,25.6,29.73,NNW,332,1.5,1.5,76,0.00,,OVC047,0.00,VWS V14.01,2013-03-05 07:52:00,
2013-03-05 02:57:00,32.3,25.6,29.73,SSW,210,4.9,7.3,76,0.00,,OVC047,0.00,VWS V14.01,2013-03-05 07:57:00,
2013-03-05 03:02:00,32.4,25.8,29.73,NNE,18,10.8,10.8,76,0.00,,OVC047,0.00,VWS V14.01,2013-03-05 08:02:00,
2013-03-05 03:07:00,32.2,25.5,29.73,NNW,338,6.7,8.8,76,0.00,,OVC047,0.00,VWS V14.01,2013-03-05 08:07:00,
2013-03-05 03:12:00,32.1,25.4,29.74,NNW,342,3.6,6.3,76,0.00,,OVC049,0.00,VWS V14.01,2013-03-05 08:12:00,
2013-03-05 03:17:00,32.2,25.6,29.74,NNW,340,5.6,8.7,76,0.00,,OVC049,0.00,VWS V14.01,2013-03-05 08:17:00,
2013-03-05 03:22:00,32.1,25.3,29.74,NNE,20,2.9,6.5,76,0.00,,OVC049,0.00,VWS V14.01,2013-03-05 08:22:00,
2013-03-05 03:27:00,32.0,25.2,29.74,North,357,5.0,9.6,76,0.00,,OVC049,0.00,VWS V14.01,2013-03-05 08:27:00,
2013-03-05 03:32:00,31.9,25.2,29.74,WSW,243,6.5,8.3,76,0.00,,OVC049,0.00,VWS V14.01,2013-03-05 08:32:00,
2013-03-05 03:37:00,31.9,25.2,29.75,NNE,13,5.7,6.1,76,0.00,,OVC049,0.00,VWS V14.01,2013-03-05 08:37:00,
2013-03-05 03:42:00,31.8,25.1,29.75,NE,39,5.8,8.0,76,0.00,,OVC049,0.00,VWS V14.01,2013-03-05 08:42:00,
2013-03-05 03:47:00,31.8,25.1,29.75,NNE,21,6.8,7.2,76,0.00,,OVC049,0.00,VWS V14.01,2013-03-05 08:47:00,
2013-03-05 03:52:00,31.9,25.2,29.75,NE,53,7.1,7.3,76,0.00,,OVC049,0.00,VWS V14.01,2013-03-05 08:52:00,
2013-03-05 03:57:00,31.7,25.1,29.75,North,6,7.1,7.1,76,0.00,,OVC049,0.00,VWS V14.01,2013-03-05 08:57:00,
2013-03-05 04:02:00,31.5,25.0,29.76,North,11,4.4,7.2,77,0.00,,OVC049,0.00,VWS V14.01,2013-03-05 09:02:00,
2013-03-05 04:07:00,31.6,25.1,29.76,North,352,4.9,6.4,77,0.00,,CLR,0.00,VWS V14.01,2013-03-05 09:07:00,
2013-03-05 04:12:00,31.6,25.2,29.76,NNE,24,4.4,6.0,77,0.00,,CLR,0.00,VWS V14.01,2013-03-05 09:12:00,
2013-03-05 04:17:00,31.5,25.1,29.76,North,3,1.5,3.1,77,0.00,,CLR,0.00,VWS V14.01,2013-03-05 09:17:00,
2013-03-05 04:22:00,31.6,25.1,29.77,NW,311,4.3,8.2,77,0.00,,CLR,0.00,VWS V14.01,2013-03-05 09:22:00,
2013-03-05 04:27:00,31.7,25.4,29.77,NNE,21,5.8,9.0,77,0.00,,CLR,0.00,VWS V14.01,2013-03-05 09:27:00,
2013-03-05 04:32:00,31.8,25.3,29.77,NNE,27,5.2,5.2,77,0.00,,CLR,0.00,VWS V14.01,2013-03-05 09:32:00,
2013-03-05 04:37:00,31.8,25.3,29.77,NNE,17,1.5,4.7,76,0.00,,CLR,0.00,VWS V14.01,2013-03-05 09:37:00,
2013-03-05 04:42:00,32.0,25.5,29.78,North,4,6.0,7.6,77,0.00,,CLR,0.00,VWS V14.01,2013-03-05 09:42:00,
2013-03-05 04:47:00,31.9,25.4,29.78,NNE,24,8.0,8.0,76,0.00,,CLR,0.00,VWS V14.01,2013-03-05 09:47:00,
2013-03-05 04:52:00,32.0,25.3,29.78,North,3,5.3,7.3,76,0.00,,CLR,0.00,VWS V14.01,2013-03-05 09:52:00,
2013-03-05 04:57:00,32.0,25.5,29.78,North,359,6.0,7.6,76,0.00,,CLR,0.00,VWS V14.01,2013-03-05 09:57:00,
2013-03-05 05:02:00,32.0,25.5,29.79,NE,34,3.5,4.8,76,0.00,,OVC050,0.00,VWS V14.01,2013-03-05 10:02:00,
2013-03-05 05:07:00,31.9,25.4,29.79,NNW,338,6.3,8.8,76,0.00,,OVC050,0.00,VWS V14.01,2013-03-05 10:07:00,
2013-03-05 05:12:00,31.9,25.4,29.79,NE,37,5.3,8.3,77,0.00,,OVC050,0.00,VWS V14.01,2013-03-05 10:12:00,
2013-03-05 05:17:00,31.8,25.2,29.79,North,7,4.4,10.0,76,0.00,,OVC050,0.00,VWS V14.01,2013-03-05 10:17:00,
2013-03-05 05:22:00,31.8,25.2,29.79,East,97,3.0,6.5,76,0.00,,OVC050,0.00,VWS V14.01,2013-03-05 10:22:00,
2013-03-05 05:27:00,31.8,25.3,29.80,North,10,5.3,9.0,77,0.00,,OVC050,0.00,VWS V14.01,2013-03-05 10:27:00,
2013-03-05 05:32:00,31.8,25.4,29.80,NE,38,6.0,8.0,77,0.00,,OVC050,0.00,VWS V14.01,2013-03-05 10:32:00,
2013-03-05 05:37:00,31.9,25.6,29.80,NNE,18,8.0,8.0,77,0.00,,OVC050,0.00,VWS V14.01,2013-03-05 10:37:00,
2013-03-05 05:42:00,32.0,25.5,29.80,NNE,14,5.5,6.4,77,0.00,,OVC050,0.00,VWS V14.01,2013-03-05 10:42:00,
2013-03-05 05:47:00,32.0,25.5,29.80,NNW,339,7.2,8.5,76,0.00,,OVC050,0.00,VWS V14.01,2013-03-05 10:47:00,
2013-03-05 05:52:00,32.1,25.4,29.81,NW,322,7.1,9.5,76,0.00,,OVC050,0.00,VWS V14.01,2013-03-05 10:52:00,
2013-03-05 05:57:00,32.1,25.5,29.81,North,357,6.3,9.0,76,0.00,,OVC050,0.00,VWS V14.01,2013-03-05 10:57:00,
2013-03-05 06:02:00,32.2,25.6,29.81,North,1,7.5,12.4,76,0.00,,OVC050,0.00,VWS V14.01,2013-03-05 11:02:00,
2013-03-05 06:07:00,32.1,25.5,29.81,NW,314,5.4,8.6,76,0.00,,OVC050,0.00,VWS V14.01,2013-03-05 11:07:00,
2013-03-05 06:12:00,32.3,25.7,29.82,NNE,14,5.2,9.0,76,0.00,,OVC050,0.00,VWS V14.01,2013-03-05 11:12:00,
2013-03-05 06:17:00,32.2,25.6,29.82,North,4,6.8,9.8,76,0.00,,OVC050,0.00,VWS V14.01,2013-03-05 11:17:00,
2013-03-05 06:22:00,32.2,25.5,29.82,NNW,328,6.0,7.5,76,0.00,,OVC050,0.00,VWS V14.01,2013-03-05 11:22:00,
2013-03-05 06:27:00,32.2,25.7,29.82,North,8,9.1,9.1,77,0.00,,OVC050,0.00,VWS V14.01,2013-03-05 11:27:00,
2013-03-05 06:32:00,32.3,25.7,29.82,NNE,25,6.3,7.8,76,0.00,,OVC050,0.00,VWS V14.01,2013-03-05 11:32:00,
2013-03-05 06:37:00,32.4,25.9,29.82,NE,39,2.2,6.7,76,0.00,,OVC050,0.00,VWS V14.01,2013-03-05 11:37:00,
2013-03-05 06:42:00,32.4,25.9,29.83,NNE,15,4.8,9.5,77,0.00,,OVC050,0.00,VWS V14.01,2013-03-05 11:42:00,
2013-03-05 06:47:00,32.6,26.1,29.83,NNE,14,6.5,6.5,77,0.00,,OVC050,0.00,VWS V14.01,2013-03-05 11:47:00,
2013-03-05 06:52:00,32.7,26.1,29.83,NE,51,4.2,7.2,76,0.00,,OVC050,0.00,VWS V14.01,2013-03-05 11:52:00,
2013-03-05 06:57:00,32.9,26.5,29.83,NE,41,1.5,6.5,77,0.00,,OVC050,0.00,VWS V14.01,2013-03-05 11:57:00,
2013-03-05 07:02:00,33.0,26.6,29.83,North,0,7.0,7.0,77,0.00,,OVC048,0.00,VWS V14.01,2013-03-05 12:02:00,
2013-03-05 07:07:00,33.1,26.6,29.84,NNE,25,7.3,9.0,77,0.00,,OVC048,0.00,VWS V14.01,2013-03-05 12:07:00,
2013-03-05 07:12:00,33.4,26.6,29.84,NNE,15,8.0,8.3,76,0.00,,OVC048,0.00,VWS V14.01,2013-03-05 12:12:00,
2013-03-05 07:17:00,33.5,26.5,29.84,NNW,332,3.4,9.7,75,0.00,,OVC048,0.00,VWS V14.01,2013-03-05 12:17:00,
2013-03-05 07:22:00,33.7,26.5,29.84,North,349,4.0,11.8,75,0.00,,OVC048,0.00,VWS V14.01,2013-03-05 12:22:00,
2013-03-05 07:27:00,33.8,26.7,29.84,NE,45,7.0,9.4,75,0.00,,OVC048,0.00,VWS V14.01,2013-03-05 12:27:00,
2013-03-05 07:32:00,33.9,26.7,29.85,NE,52,6.7,8.6,75,0.00,,OVC048,0.00,VWS V14.01,2013-03-05 12:32:00,
2013-03-05 07:37:00,34.1,26.8,29.85,North,3,4.0,6.4,74,0.00,,OVC048,0.00,VWS V14.01,2013-03-05 12:37:00,
2013-03-05 07:42:00,34.3,27.0,29.85,NNE,25,5.3,5.5,74,0.00,,OVC048,0.00,VWS V14.01,2013-03-05 12:42:00,
2013-03-05 07:47:00,34.7,27.4,29.86,NNE,30,5.2,7.8,74,0.00,,OVC048,0.00,VWS V14.01,2013-03-05 12:47:00,
2013-03-05 07:52:00,34.9,27.0,29.86,NE,35,5.1,6.1,73,0.00,,OVC048,0.00,VWS V14.01,2013-03-05 12:52:00,
2013-03-05 07:57:00,35.2,27.5,29.86,ESE,111,4.6,7.2,73,0.00,,OVC048,0.00,VWS V14.01,2013-03-05 12:57:00,
2013-03-05 08:02:00,35.3,27.3,29.86,NNE,21,9.5,10.6,72,0.00,,BKN055,0.00,VWS V14.01,2013-03-05 13:02:00,
2013-03-05 08:07:00,35.3,27.2,29.86,North,6,5.2,6.2,72,0.00,,BKN055,0.00,VWS V14.01,2013-03-05 13:07:00,
2013-03-05 08:12:00,35.4,27.1,29.86,North,0,4.2,6.1,71,0.00,,BKN055,0.00,VWS V14.01,2013-03-05 13:12:00,
2013-03-05 08:17:00,35.6,27.3,29.87,NNE,15,9.6,10.3,71,0.00,,BKN055,0.00,VWS V14.01,2013-03-05 13:17:00,
2013-03-05 08:22:00,35.7,27.3,29.87,NNE,25,8.0,10.3,71,0.00,,BKN055,0.00,VWS V14.01,2013-03-05 13:22:00,
2013-03-05 08:27:00,35.8,27.1,29.87,NNW,342,5.7,9.6,70,0.00,,BKN055,0.00,VWS V14.01,2013-03-05 13:27:00,
2013-03-05 08:32:00,36.1,27.5,29.87,North,8,6.7,8.5,71,0.00,,BKN055,0.00,VWS V14.01,2013-03-05 13:32:00,
2013-03-05 08:37:00,36.7,27.9,29.87,ENE,69,4.4,6.1,70,0.00,,OVC060,0.00,VWS V14.01,2013-03-05 13:37:00,
2013-03-05 08:42:00,36.8,27.7,29.87,North,11,7.6,8.0,69,0.00,,OVC060,0.00,VWS V14.01,2013-03-05 13:42:00,
2013-03-05 08:47:00,36.8,27.5,29.87,NNE,14,10.0,11.6,69,0.00,,OVC060,0.00,VWS V14.01,2013-03-05 13:47:00,
2013-03-05 08:52:00,36.9,27.2,29.88,NNE,17,7.8,9.2,68,0.00,,OVC060,0.00,VWS V14.01,2013-03-05 13:52:00,
2013-03-05 08:57:00,37.1,27.6,29.88,North,353,5.0,5.5,68,0.00,,OVC060,0.00,VWS V14.01,2013-03-05 13:57:00,
2013-03-05 09:02:00,37.4,27.8,29.88,North,11,10.1,10.9,68,0.00,,BKN060,0.00,VWS V14.01,2013-03-05 14:02:00,
2013-03-05 09:07:00,37.2,27.3,29.88,NNE,20,7.0,10.3,67,0.00,,BKN060,0.00,VWS V14.01,2013-03-05 14:07:00,
2013-03-05 09:12:00,37.1,27.5,29.88,NNE,31,5.7,8.6,68,0.00,,BKN060,0.00,VWS V14.01,2013-03-05 14:12:00,
2013-03-05 09:17:00,36.9,27.2,29.88,NNW,336,9.9,9.9,68,0.00,,BKN060,0.00,VWS V14.01,2013-03-05 14:17:00,
2013-03-05 09:22:00,36.8,27.1,29.88,NNE,20,5.3,5.7,68,0.00,,BKN060,0.00,VWS V14.01,2013-03-05 14:22:00,
2013-03-05 09:27:00,36.8,27.6,29.88,NE,51,3.2,9.3,69,0.00,,BKN060,0.00,VWS V14.01,2013-03-05 14:27:00,
2013-03-05 09:32:00,37.0,27.9,29.88,NNE,21,9.5,9.5,69,0.00,,BKN060,0.00,VWS V14.01,2013-03-05 14:32:00,
2013-03-05 09:37:00,37.2,28.0,29.89,North,1,8.1,13.7,69,0.00,,BKN060,0.00,VWS V14.01,2013-03-05 14:37:00,
2013-03-05 09:42:00,37.1,27.9,29.89,North,357,9.5,13.9,69,0.00,,BKN060,0.00,VWS V14.01,2013-03-05 14:42:00,
2013-03-05 09:47:00,37.4,28.3,29.89,NNW,340,5.0,9.8,69,0.00,,BKN060,0.00,VWS V14.01,2013-03-05 14:47:00,
2013-03-05 09:52:00,37.4,28.1,29.89,NNE,24,9.3,10.3,69,0.00,,BKN060,0.00,VWS V14.01,2013-03-05 14:52:00,
2013-03-05 09:57:00,37.4,28.1,29.89,NNW,328,6.9,10.4,69,0.00,,BKN060,0.00,VWS V14.01,2013-03-05 14:57:00,
2013-03-05 10:02:00,37.6,28.5,29.89,North,10,8.0,8.5,70,0.00,,BKN026,0.00,VWS V14.01,2013-03-05 15:02:00,
2013-03-05 10:07:00,37.7,28.6,29.89,NE,37,5.4,8.8,70,0.00,,BKN026,0.00,VWS V14.01,2013-03-05 15:07:00,
2013-03-05 10:12:00,37.8,28.7,29.89,NNE,22,6.3,6.3,69,0.00,,BKN026,0.00,VWS V14.01,2013-03-05 15:12:00,
2013-03-05 10:17:00,37.9,28.8,29.89,NE,35,5.2,10.9,70,0.00,,BKN026,0.00,VWS V14.01,2013-03-05 15:17:00,
2013-03-05 10:22:00,37.9,28.6,29.89,North,7,9.6,13.1,69,0.00,,BKN026,0.00,VWS V14.01,2013-03-05 15:22:00,
2013-03-05 10:27:00,37.9,28.8,29.89,NNW,347,4.7,5.3,70,0.00,,BKN026,0.00,VWS V14.01,2013-03-05 15:27:00,
2013-03-05 10:32:00,38.3,29.4,29.90,NE,51,7.9,10.4,70,0.00,,BKN026,0.00,VWS V14.01,2013-03-05 15:32:00,
2013-03-05 10:37:00,38.2,29.0,29.90,North,354,6.2,11.2,69,0.00,,BKN026,0.00,VWS V14.01,2013-03-05 15:37:00,
2013-03-05 10:42:00,38.3,29.4,29.90,SE,127,4.4,10.9,70,0.00,,BKN026,0.00,VWS V14.01,2013-03-05 15:42:00,
2013-03-05 10:47:00,38.5,29.6,29.90,NNE,27,8.3,11.9,70,0.00,,BKN026,0.00,VWS V14.01,2013-03-05 15:47:00,
2013-03-05 10:52:00,38.6,29.6,29.90,North,8,8.3,9.4,70,0.00,,BKN026,0.00,VWS V14.01,2013-03-05 15:52:00,
2013-03-05 10:57:00,38.7,30.2,29.90,SE,132,5.5,7.8,71,0.00,,BKN037,0.00,VWS V14.01,2013-03-05 15:57:00,
2013-03-05 11:03:00,38.9,30.8,29.90,North,11,7.3,7.3,72,0.00,,BKN037,0.00,VWS V14.01,2013-03-05 16:03:00,
2013-03-05 11:08:00,39.1,30.9,29.90,NE,55,5.9,8.6,72,0.00,,BKN037,0.00,VWS V14.01,2013-03-05 16:08:00,
2013-03-05 11:13:00,39.2,31.2,29.90,ENE,70,3.8,9.5,73,0.00,,BKN037,0.00,VWS V14.01,2013-03-05 16:13:00,
2013-03-05 11:18:00,39.5,31.3,29.91,NE,48,6.2,6.2,72,0.00,,BKN037,0.00,VWS V14.01,2013-03-05 16:18:00,
2013-03-05 11:23:00,39.8,31.5,29.91,ENE,60,8.0,10.3,72,0.00,,BKN037,0.00,VWS V14.01,2013-03-05 16:23:00,
2013-03-05 11:28:00,39.7,31.4,29.91,NNE,31,8.0,8.8,72,0.00,,BKN037,0.00,VWS V14.01,2013-03-05 16:28:00,
2013-03-05 11:34:00,39.3,31.6,29.91,NE,34,3.3,7.1,74,0.00,,BKN037,0.00,VWS V14.01,2013-03-05 16:34:00,
2013-03-05 11:39:00,39.1,31.7,29.91,East,86,3.9,10.6,74,0.00,,BKN037,0.00,VWS V14.01,2013-03-05 16:39:00,
2013-03-05 11:44:00,39.2,31.6,29.91,East,83,5.4,6.5,74,0.00,,BKN037,0.00,VWS V14.01,2013-03-05 16:44:00,
2013-03-05 11:49:00,39.2,31.6,29.91,NNE,18,6.1,8.9,74,0.00,,BKN037,0.00,VWS V14.01,2013-03-05 16:49:00,
2013-03-05 11:55:00,39.1,31.7,29.92,NNE,14,4.7,5.5,75,0.00,,BKN037,0.00,VWS V14.01,2013-03-05 16:55:00,
2013-03-05 12:01:00,39.2,31.8,29.92,NNW,333,4.8,5.5,75,0.00,,OVC045,0.00,VWS V14.01,2013-03-05 17:01:00,
2013-03-05 12:06:00,39.1,31.7,29.92,NNE,15,5.1,7.3,74,0.00,,OVC045,0.00,VWS V14.01,2013-03-05 17:06:00,
2013-03-05 12:11:00,38.9,31.6,29.92,NNE,13,5.6,6.5,75,0.00,,OVC045,0.00,VWS V14.01,2013-03-05 17:11:00,
2013-03-05 12:16:00,38.9,31.8,29.92,NNE,20,6.5,7.0,75,0.00,,OVC045,0.00,VWS V14.01,2013-03-05 17:16:00,
2013-03-05 12:22:00,38.8,31.7,29.92,North,1,5.9,11.1,76,0.00,,OVC045,0.00,VWS V14.01,2013-03-05 17:22:00,
2013-03-05 12:28:00,38.8,32.1,29.92,NE,46,5.3,6.2,77,0.00,,OVC045,0.00,VWS V14.01,2013-03-05 17:28:00,
2013-03-05 12:33:00,38.7,32.2,29.92,NE,45,6.0,6.0,77,0.00,,OVC045,0.00,VWS V14.01,2013-03-05 17:33:00,
2013-03-05 12:38:00,39.0,32.6,29.92,NNW,343,3.8,7.5,78,0.00,,OVC045,0.00,VWS V14.01,2013-03-05 17:38:00,
2013-03-05 12:43:00,39.0,32.4,29.92,NNE,20,4.0,4.6,77,0.00,,OVC045,0.00,VWS V14.01,2013-03-05 17:43:00,
2013-03-05 12:49:00,39.1,32.5,29.92,NE,52,4.9,7.1,77,0.00,,OVC045,0.00,VWS V14.01,2013-03-05 17:49:00,
2013-03-05 12:54:00,39.3,32.8,29.92,North,6,10.3,10.3,77,0.00,,OVC045,0.00,VWS V14.01,2013-03-05 17:54:00,
2013-03-05 12:59:00,39.6,33.0,29.92,East,79,3.3,7.0,77,0.00,,OVC045,0.00,VWS V14.01,2013-03-05 17:59:00,
2013-03-05 13:04:00,39.9,32.9,29.92,North,1,5.8,10.3,76,0.00,,OVC036,0.00,VWS V14.01,2013-03-05 18:04:00,
2013-03-05 13:09:00,39.9,33.2,29.92,North,4,7.0,7.3,77,0.00,,OVC036,0.00,VWS V14.01,2013-03-05 18:09:00,
2013-03-05 13:14:00,39.9,33.9,29.92,NNE,28,4.6,9.8,79,0.00,,OVC036,0.00,VWS V14.01,2013-03-05 18:14:00,
2013-03-05 13:20:00,39.8,34.6,29.92,NNE,15,7.0,12.9,81,0.00,,OVC036,0.00,VWS V14.01,2013-03-05 18:20:00,
2013-03-05 13:25:00,39.7,34.8,29.92,NNE,21,9.0,9.9,83,0.00,,OVC036,0.00,VWS V14.01,2013-03-05 18:25:00,
2013-03-05 13:30:00,39.6,35.0,29.92,NNE,14,6.1,10.1,84,0.00,,OVC036,0.00,VWS V14.01,2013-03-05 18:30:00,
2013-03-05 13:35:00,39.4,34.8,29.93,NE,49,3.0,8.5,83,0.00,,OVC036,0.00,VWS V14.01,2013-03-05 18:35:00,
2013-03-05 13:41:00,39.5,35.2,29.93,NNE,24,5.4,9.1,84,0.00,,OVC036,0.00,VWS V14.01,2013-03-05 18:41:00,
2013-03-05 13:47:00,39.7,35.3,29.93,North,6,7.3,10.3,84,0.00,,OVC036,0.00,VWS V14.01,2013-03-05 18:47:00,
2013-03-05 13:52:00,39.8,35.4,29.93,NNE,32,6.4,7.2,84,0.00,,OVC036,0.00,VWS V14.01,2013-03-05 18:52:00,
2013-03-05 13:57:00,40.0,35.7,29.93,East,80,5.7,7.0,84,0.00,,OVC036,0.00,VWS V14.01,2013-03-05 18:57:00,
2013-03-05 14:02:00,40.3,35.9,29.93,East,83,6.4,9.2,84,0.00,,OVC040,0.00,VWS V14.01,2013-03-05 19:02:00,
2013-03-05 14:08:00,40.5,35.8,29.94,North,0,7.2,7.3,83,0.00,,OVC040,0.00,VWS V14.01,2013-03-05 19:08:00,
2013-03-05 14:13:00,40.6,35.8,29.94,NE,56,4.6,7.0,83,0.00,,OVC040,0.00,VWS V14.01,2013-03-05 19:13:00,
2013-03-05 14:18:00,40.4,35.6,29.94,NE,41,6.1,8.6,83,0.00,,OVC040,0.00,VWS V14.01,2013-03-05 19:18:00,
2013-03-05 14:23:00,40.6,35.9,29.94,NNE,15,7.9,9.0,83,0.00,,OVC040,0.00,VWS V14.01,2013-03-05 19:23:00,
2013-03-05 14:29:00,40.6,35.9,29.94,NE,44,5.8,9.3,83,0.00,,OVC040,0.00,VWS V14.01,2013-03-05 19:29:00,
2013-03-05 14:35:00,40.7,36.0,29.94,ENE,58,4.4,8.6,83,0.00,,OVC040,0.00,VWS V14.01,2013-03-05 19:35:00,
2013-03-05 14:40:00,41.0,36.2,29.94,NNW,346,7.1,7.5,83,0.00,,OVC040,0.00,VWS V14.01,2013-03-05 19:40:00,
2013-03-05 14:45:00,41.0,35.8,29.94,ENE,63,5.2,7.0,82,0.00,,OVC040,0.00,VWS V14.01,2013-03-05 19:45:00,
2013-03-05 14:50:00,41.1,35.8,29.94,NNE,14,7.9,13.1,81,0.00,,OVC040,0.00,VWS V14.01,2013-03-05 19:50:00,
2013-03-05 14:56:00,41.1,35.6,29.94,North,359,6.1,6.7,80,0.00,,OVC040,0.00,VWS V14.01,2013-03-05 19:56:00,
2013-03-05 15:01:00,41.1,35.7,29.94,NE,39,7.7,11.1,81,0.00,,OVC050,0.00,VWS V14.01,2013-03-05 20:01:00,
2013-03-05 15:06:00,41.4,36.1,29.94,ENE,73,6.0,11.9,81,0.00,,OVC050,0.00,VWS V14.01,2013-03-05 20:06:00,
2013-03-05 15:11:00,41.5,36.3,29.95,North,11,5.0,5.5,82,0.00,,OVC050,0.00,VWS V14.01,2013-03-05 20:11:00,
2013-03-05 15:17:00,41.9,36.3,29.95,NNW,328,5.3,9.2,80,0.00,,OVC050,0.00,VWS V14.01,2013-03-05 20:17:00,
2013-03-05 15:22:00,41.9,36.2,29.95,NNE,27,4.5,5.4,80,0.00,,OVC050,0.00,VWS V14.01,2013-03-05 20:22:00,
2013-03-05 15:27:00,41.6,36.1,29.95,East,79,5.7,7.3,81,0.00,,OVC050,0.00,VWS V14.01,2013-03-05 20:27:00,
2013-03-05 15:32:00,41.5,36.1,29.95,NE,38,4.5,7.0,81,0.00,,OVC050,0.00,VWS V14.01,2013-03-05 20:32:00,
2013-03-05 15:38:00,41.4,36.3,29.95,ENE,59,5.4,6.4,82,0.00,,OVC050,0.00,VWS V14.01,2013-03-05 20:38:00,
2013-03-05 15:44:00,41.5,36.7,29.96,East,84,5.9,7.5,83,0.00,,OVC050,0.00,VWS V14.01,2013-03-05 20:44:00,
2013-03-05 15:50:00,41.4,36.8,29.96,ESE,103,6.0,7.2,84,0.00,,OVC050,0.00,VWS V14.01,2013-03-05 20:50:00,
2013-03-05 15:55:00,41.1,36.9,29.96,ENE,62,4.5,6.8,85,0.00,,OVC050,0.00,VWS V14.01,2013-03-05 20:55:00,
2013-03-05 16:00:00,41.0,37.0,29.97,East,86,7.7,7.7,85,0.00,,OVC050,0.00,VWS V14.01,2013-03-05 21:00:00,
2013-03-05 16:05:00,40.6,36.7,29.97,NE,48,3.9,5.6,86,0.00,,BKN060,0.00,VWS V14.01,2013-03-05 21:05:00,
2013-03-05 16:11:00,40.2,36.8,29.97,North,350,8.0,8.0,88,0.00,,BKN060,0.00,VWS V14.01,2013-03-05 21:11:00,
2013-03-05 16:16:00,39.9,36.8,29.97,ENE,75,3.2,5.3,88,0.00,,BKN060,0.00,VWS V14.01,2013-03-05 21:16:00,
2013-03-05 16:22:00,40.1,37.1,29.98,North,359,5.6,6.9,89,0.00,,BKN060,0.00,VWS V14.01,2013-03-05 21:22:00,
2013-03-05 16:28:00,40.0,37.1,29.98,NNE,30,3.7,7.1,89,0.00,,BKN060,0.00,VWS V14.01,2013-03-05 21:28:00,
2013-03-05 16:34:00,40.1,37.2,29.98,North,11,7.2,7.2,89,0.00,,BKN060,0.00,VWS V14.01,2013-03-05 21:34:00,
2013-03-05 16:39:00,40.1,37.2,29.98,NE,53,4.7,5.2,89,0.00,,BKN060,0.00,VWS V14.01,2013-03-05 21:39:00,
2013-03-05 16:45:00,40.0,37.1,29.98,NE,35,3.5,4.7,89,0.00,,BKN060,0.00,VWS V14.01,2013-03-05 21:45:00,
2013-03-05 16:51:00,40.1,37.3,29.98,NE,53,3.4,4.7,90,0.00,,BKN060,0.00,VWS V14.01,2013-03-05 21:51:00,
2013-03-05 16:56:00,40.1,37.4,29.98,NNE,27,4.1,4.2,90,0.00,,BKN060,0.00,VWS V14.01,2013-03-05 21:56:00,
2013-03-05 17:02:00,40.1,37.3,29.98,NNE,32,2.8,4.8,90,0.00,,BKN055,0.00,VWS V14.01,2013-03-05 22:02:00,
2013-03-05 17:08:00,39.9,36.9,29.98,NNE,31,3.0,3.8,89,0.00,,BKN055,0.00,VWS V14.01,2013-03-05 22:08:00,
2013-03-05 17:13:00,39.6,36.7,29.98,NE,55,2.4,4.9,89,0.00,,BKN055,0.00,VWS V14.01,2013-03-05 22:13:00,
2013-03-05 17:19:00,39.2,36.3,29.99,NE,55,1.5,6.2,89,0.00,,BKN055,0.00,VWS V14.01,2013-03-05 22:19:00,
2013-03-05 17:25:00,38.9,36.3,29.99,NE,44,2.8,3.3,90,0.00,,BKN055,0.00,VWS V14.01,2013-03-05 22:25:00,
2013-03-05 17:30:00,38.8,36.4,29.99,NNE,27,1.5,1.5,91,0.00,,BKN055,0.00,VWS V14.01,2013-03-05 22:30:00,
2013-03-05 17:36:00,38.4,36.3,29.99,NE,35,1.5,1.5,92,0.00,,BKN055,0.00,VWS V14.01,2013-03-05 22:36:00,
2013-03-05 17:42:00,38.1,36.2,29.99,NE,35,1.5,1.5,93,0.00,,BKN055,0.00,VWS V14.01,2013-03-05 22:42:00,
2013-03-05 17:47:00,37.8,36.1,29.99,NNE,25,1.5,1.5,94,0.00,,BKN055,0.00,VWS V14.01,2013-03-05 22:47:00,
2013-03-05 17:53:00,37.7,36.2,29.99,NNE,25,1.5,1.5,94,0.00,,BKN055,0.00,VWS V14.01,2013-03-05 22:53:00,
2013-03-05 17:59:00,37.5,36.2,29.99,NNE,25,1.5,1.5,95,0.00,,BKN055,0.00,VWS V14.01,2013-03-05 22:59:00,
2013-03-05 18:04:00,37.5,36.2,29.99,NNE,25,1.5,1.5,95,0.00,,BKN075,0.00,VWS V14.01,2013-03-05 23:04:00,
2013-03-05 18:10:00,37.5,36.3,29.99,NNE,17,1.5,1.5,96,0.00,,BKN075,0.00,VWS V14.01,2013-03-05 23:10:00,
2013-03-05 18:16:00,37.4,36.3,29.99,North,354,1.5,1.5,96,0.00,,BKN075,0.00,VWS V14.01,2013-03-05 23:16:00,
2013-03-05 18:21:00,37.3,36.2,29.99,NNE,28,1.5,1.5,96,0.00,,BKN075,0.00,VWS V14.01,2013-03-05 23:21:00,
2013-03-05 18:27:00,37.3,36.2,30.00,NNE,28,1.5,1.5,96,0.00,,BKN075,0.00,VWS V14.01,2013-03-05 23:27:00,
2013-03-05 18:33:00,37.2,36.1,29.99,NNE,28,1.5,1.5,96,0.00,,BKN075,0.00,VWS V14.01,2013-03-05 23:33:00,
2013-03-05 18:38:00,37.1,36.0,30.00,NNE,28,1.5,1.5,96,0.00,,BKN075,0.00,VWS V14.01,2013-03-05 23:38:00,
2013-03-05 18:44:00,37.1,36.0,30.00,NNE,28,1.5,1.5,96,0.00,,BKN075,0.00,VWS V14.01,2013-03-05 23:44:00,
2013-03-05 18:50:00,36.9,35.8,30.00,NNE,28,1.5,1.5,96,0.00,,BKN075,0.00,VWS V14.01,2013-03-05 23:50:00,
2013-03-05 18:55:00,36.9,35.8,30.00,NE,34,1.5,2.7,96,0.00,,BKN075,0.00,VWS V14.01,2013-03-05 23:55:00,
2013-03-05 19:01:00,36.8,35.8,30.00,WNW,300,1.5,1.5,96,0.00,,SCT080,0.00,VWS V14.01,2013-03-06 00:01:00,
2013-03-05 19:07:00,36.5,35.5,30.00,WNW,300,1.5,1.5,96,0.00,,SCT080,0.00,VWS V14.01,2013-03-06 00:07:00,
2013-03-05 19:12:00,36.4,35.4,30.00,WNW,300,1.5,1.5,96,0.00,,SCT080,0.00,VWS V14.01,2013-03-06 00:12:00,
2013-03-05 19:18:00,36.2,35.2,30.00,WNW,300,1.5,1.5,96,0.00,,SCT080,0.00,VWS V14.01,2013-03-06 00:18:00,
2013-03-05 19:24:00,36.0,35.0,30.01,WNW,300,1.5,1.5,96,0.00,,SCT080,0.00,VWS V14.01,2013-03-06 00:24:00,
2013-03-05 19:29:00,35.8,34.9,30.01,WNW,300,1.5,1.5,96,0.00,,SCT080,0.00,VWS V14.01,2013-03-06 00:29:00,
2013-03-05 19:35:00,35.5,34.7,30.01,WSW,243,1.5,1.5,97,0.00,,SCT080,0.00,VWS V14.01,2013-03-06 00:35:00,
2013-03-05 19:41:00,35.3,34.5,30.01,WSW,243,1.5,1.5,97,0.00,,SCT080,0.00,VWS V14.01,2013-03-06 00:41:00,
2013-03-05 19:46:00,35.1,34.3,30.01,WSW,243,1.5,1.5,97,0.00,,SCT080,0.00,VWS V14.01,2013-03-06 00:46:00,
2013-03-05 19:52:00,35.0,34.2,30.02,WSW,243,1.5,1.5,97,0.00,,SCT080,0.00,VWS V14.01,2013-03-06 00:52:00,
2013-03-05 19:57:00,34.7,34.0,30.02,WSW,243,1.5,1.5,97,0.00,,SCT080,0.00,VWS V14.01,2013-03-06 00:57:00,
2013-03-05 20:02:00,34.8,34.1,30.02,WSW,243,1.5,1.5,97,0.00,,SCT045,0.00,VWS V14.01,2013-03-06 01:02:00,
2013-03-05 20:07:00,34.6,33.9,30.02,WSW,243,1.5,1.5,97,0.00,,SCT045,0.00,VWS V14.01,2013-03-06 01:07:00,
2013-03-05 20:13:00,34.4,33.8,30.01,WSW,243,1.5,1.5,98,0.00,,SCT045,0.00,VWS V14.01,2013-03-06 01:13:00,
2013-03-05 20:18:00,34.2,33.6,30.01,WSW,243,1.5,1.5,98,0.00,,SCT045,0.00,VWS V14.01,2013-03-06 01:18:00,
2013-03-05 20:24:00,34.4,33.9,30.01,WSW,243,1.5,1.5,98,0.00,,SCT045,0.00,VWS V14.01,2013-03-06 01:24:00,
2013-03-05 20:29:00,34.5,34.0,30.01,WSW,243,1.5,1.5,98,0.00,,SCT045,0.00,VWS V14.01,2013-03-06 01:29:00,
2013-03-05 20:35:00,34.7,34.2,30.01,WSW,243,1.5,1.5,98,0.00,,SCT045,0.00,VWS V14.01,2013-03-06 01:35:00,
2013-03-05 20:41:00,34.8,34.3,30.01,WSW,243,1.5,1.5,98,0.00,,SCT045,0.00,VWS V14.01,2013-03-06 01:41:00,
2013-03-05 20:46:00,35.0,34.6,30.01,WSW,243,1.5,1.5,98,0.00,,SCT045,0.00,VWS V14.01,2013-03-06 01:46:00,
2013-03-05 20:52:00,35.0,34.5,30.01,WSW,243,1.5,1.5,98,0.00,,SCT045,0.00,VWS V14.01,2013-03-06 01:52:00,
2013-03-05 20:57:00,34.9,34.4,30.00,WSW,243,1.5,1.5,98,0.00,,SCT045,0.00,VWS V14.01,2013-03-06 01:57:00,
2013-03-05 21:03:00,34.7,34.2,30.00,WSW,243,1.5,1.5,98,0.00,,OVC075,0.00,VWS V14.01,2013-03-06 02:03:00,
2013-03-05 21:09:00,34.4,33.9,30.00,WSW,243,1.5,1.5,98,0.00,,OVC075,0.00,VWS V14.01,2013-03-06 02:09:00,
2013-03-05 21:15:00,34.3,33.9,30.00,WSW,238,1.5,1.5,98,0.00,,OVC075,0.00,VWS V14.01,2013-03-06 02:15:00,
2013-03-05 21:20:00,34.1,33.7,30.00,WSW,238,1.5,1.5,98,0.00,,OVC075,0.00,VWS V14.01,2013-03-06 02:20:00,
2013-03-05 21:26:00,33.9,33.5,30.00,WSW,238,1.5,1.5,98,0.00,,OVC075,0.00,VWS V14.01,2013-03-06 02:26:00,
2013-03-05 21:32:00,33.7,33.3,30.00,WSW,238,1.5,1.5,99,0.00,,OVC075,0.00,VWS V14.01,2013-03-06 02:32:00,
2013-03-05 21:37:00,33.7,33.4,30.00,WSW,238,1.5,1.5,99,0.00,,OVC075,0.00,VWS V14.01,2013-03-06 02:37:00,
2013-03-05 21:42:00,33.4,33.1,30.00,WSW,238,1.5,1.5,99,0.00,,OVC075,0.00,VWS V14.01,2013-03-06 02:42:00,
2013-03-05 21:48:00,33.3,33.0,30.00,WSW,253,2.2,2.9,99,0.00,,OVC075,0.00,VWS V14.01,2013-03-06 02:48:00,
2013-03-05 21:53:00,33.1,32.8,30.00,WSW,246,1.5,2.7,99,0.00,,OVC075,0.00,VWS V14.01,2013-03-06 02:53:00,
2013-03-05 21:58:00,32.9,32.8,30.00,WSW,246,1.5,1.5,99,0.00,,OVC075,0.00,VWS V14.01,2013-03-06 02:58:00,
2013-03-05 22:04:00,32.9,32.8,30.00,WSW,246,1.5,1.5,100,0.00,,OVC075,0.00,VWS V14.01,2013-03-06 03:04:00,
2013-03-05 22:09:00,32.7,32.7,30.00,WSW,246,1.5,1.5,100,0.00,,OVC075,0.00,VWS V14.01,2013-03-06 03:09:00,
2013-03-05 22:15:00,32.7,32.7,30.00,SSW,208,1.5,1.5,100,0.00,,OVC075,0.00,VWS V14.01,2013-03-06 03:15:00,
2013-03-05 22:21:00,32.7,32.7,30.01,SSW,208,1.5,1.5,100,0.00,,OVC075,0.00,VWS V14.01,2013-03-06 03:21:00,
2013-03-05 22:26:00,32.7,32.7,30.01,SSW,208,1.5,1.5,100,0.00,,OVC075,0.00,VWS V14.01,2013-03-06 03:26:00,
2013-03-05 22:32:00,32.9,32.9,30.01,SSW,208,1.5,1.5,100,0.00,,OVC075,0.00,VWS V14.01,2013-03-06 03:32:00,
2013-03-05 22:38:00,33.0,33.0,30.01,SSW,208,1.5,1.5,100,0.00,,OVC075,0.00,VWS V14.01,2013-03-06 03:38:00,
2013-03-05 22:43:00,33.2,33.2,30.01,West,280,1.5,2.7,100,0.00,,OVC075,0.00,VWS V14.01,2013-03-06 03:43:00,
2013-03-05 22:48:00,33.4,33.4,30.01,West,280,1.5,1.5,100,0.00,,OVC075,0.00,VWS V14.01,2013-03-06 03:48:00,
2013-03-05 22:54:00,33.4,33.4,30.02,West,280,1.5,1.5,100,0.00,,OVC075,0.00,VWS V14.01,2013-03-06 03:54:00,
2013-03-05 22:59:00,33.4,33.4,30.02,WNW,291,1.5,1.5,100,0.00,,OVC075,0.00,VWS V14.01,2013-03-06 03:59:00,
2013-03-05 23:04:00,33.4,33.4,30.02,WNW,291,1.5,1.5,100,0.00,,OVC047,0.00,VWS V14.01,2013-03-06 04:04:00,
2013-03-05 23:10:00,33.4,33.4,30.03,WNW,291,1.5,1.5,100,0.00,,OVC047,0.00,VWS V14.01,2013-03-06 04:10:00,
2013-03-05 23:15:00,33.4,33.4,30.03,WNW,291,1.5,1.5,100,0.00,,OVC047,0.00,VWS V14.01,2013-03-06 04:15:00,
2013-03-05 23:21:00,33.7,33.7,30.02,WNW,291,1.5,1.5,100,0.00,,OVC047,0.00,VWS V14.01,2013-03-06 04:21:00,
2013-03-05 23:26:00,33.7,33.7,30.02,WNW,291,1.5,1.5,100,0.00,,OVC047,0.00,VWS V14.01,2013-03-06 04:26:00,
2013-03-05 23:31:00,33.8,33.8,30.02,WNW,291,1.5,1.5,100,0.00,,OVC047,0.00,VWS V14.01,2013-03-06 04:31:00,
2013-03-05 23:36:00,33.9,33.9,30.02,WNW,291,1.5,1.5,100,0.00,,-RA,0.00,VWS V14.01,2013-03-06 04:36:00,
2013-03-05 23:41:00,33.9,33.9,30.02,WNW,291,1.5,1.5,100,0.00,,-RA,0.00,VWS V14.01,2013-03-06 04:41:00,
2013-03-05 23:46:00,34.0,34.0,30.02,WNW,291,1.5,1.5,100,0.00,,-RA,0.00,VWS V14.01,2013-03-06 04:46:00,
2013-03-05 23:51:00,34.2,34.2,30.01,WNW,291,1.5,1.5,100,0.00,,-RA,0.00,VWS V14.01,2013-03-06 04:51:00,